Location: Lhota
(50.0887°N, 14.0116°E)
Time: 22:03:52
(UTC+00:00)

Cosmos 1238 Rocket - Pass Details

Date: 19 May 2025
Orbit: 356 x 778 km, 82.9° (Epoch: 15 June)

Event Time Altitude Azimuth Distance (km) Brightness Sun altitude
Exits shadow 21:22:46 20° 214° (SSW) 1,183 4.2 -16.7°
Maximum altitude 21:25:02 49° 282° (WNW) 609 3.2 -16.8°
Drops below altitude 10° 21:28:15 10° 358° (N) 1,526 6.2 -17.0°
Sets 21:30:12 0° 5° (N) 2,343 7.2 -17.1°
